Home > Weather > Lithuania > Kaunas > Past weeks

Flag for Lithuania Weather past 2 weeks in Kaunas, Lithuania

37 °F

Scattered showers. Broken clouds.

Feels Like: 31 °F
Forecast: 31 / 38 °F
Wind: 9 mph from West

Location: Kaunas

Current Time: Dec 1, 2015 at 3:48:48 PM

Latest Report: Dec 1, 2015 at 3:20 PM

Visibility: N/A

Pressure: 29.56 "Hg

Humidity: 93%

Dew point: 36 °F

Location of KaunasLocation

Historic Weather in Kaunas — Graph


Kaunas temperature yesterday

Maximum temperature yesterday: 41 °F (at 11:20 AM)
Minimum temperature yesterday: 36 °F (at 2:20 PM)
Average temperature yesterday: 38 °F

Past Weeks' High & Low Weather Summary

High54 °F (Nov 18, 1:50 PM)100% (Nov 17, 4:50 AM)30.15 "Hg (Nov 17, 4:50 AM)
Low25 °F (Nov 28, 7:20 AM)65% (Nov 25, 3:20 PM)29.27 "Hg (Nov 20, 11:20 AM)
Average37 °F89%29.70 "Hg
* Reported Nov 16 2:20 PM — Dec 1 2:50 PM, Kaunas, Weather by CustomWeather, © 2015

Note: Actual official high and low records may vary slightly from our data, if they occured in-between our weather recording intervals... More about our weather records


Kaunas weather history for previous 24 hours

Time TempWeatherWind HumidityBarometerVisibility
2:50 PM
Tue, Dec 1
37 °FSprinkles. Broken clouds.13 mph93%29.56 "Hg4 mi
2:20 PM37 °FBroken clouds.12 mph93%29.53 "HgN/A
1:50 PM37 °FPartly sunny.13 mph93%29.53 "HgN/A
1:20 PM37 °FBroken clouds.14 mph93%29.53 "HgN/A
12:50 PM37 °FLow clouds.12 mph93%29.50 "HgN/A
12:20 PM37 °FLow clouds.13 mph87%29.50 "HgN/A
11:50 AM37 °FLow clouds.14 mph93%29.50 "HgN/A
11:20 AM37 °FLow clouds.14 mph87%29.47 "HgN/A
10:50 AM37 °FLight rain. Overcast.16 mph87%29.47 "HgN/A
8:50 AM37 °FOvercast.13 mph87%29.45 "HgN/A
8:20 AM37 °FLow clouds.13 mph87%29.45 "HgN/A
7:50 AM37 °FLow clouds.12 mph93%29.45 "HgN/A
7:20 AM37 °FLow clouds.14 mph87%29.45 "HgN/A
6:50 AM37 °FLow clouds.13 mph87%29.45 "HgN/A
6:20 AM37 °FLow clouds.15 mph87%29.45 "HgN/A
5:50 AM37 °FOvercast.15 mph87%29.45 "HgN/A
5:20 AM37 °FLow clouds.16 mph87%29.45 "HgN/A
4:50 AM37 °FLow clouds.16 mph87%29.45 "HgN/A
4:20 AM37 °FOvercast.17 mph87%29.45 "HgN/A
3:50 AM37 °FOvercast.15 mph87%29.42 "HgN/A
2:50 AM37 °FOvercast.17 mph87%29.45 "HgN/A
1:50 AM37 °FLow clouds.17 mph93%29.42 "HgN/A
1:20 AM37 °FSprinkles. Overcast.16 mph93%29.42 "HgN/A
12:20 AM37 °FSprinkles. Overcast.17 mph87%29.42 "HgN/A
11:50 PM
Mon, Nov 30
37 °FMostly cloudy.17 mph93%29.45 "HgN/A
11:20 PM37 °FLight rain. Low clouds.12 mph93%29.45 "HgN/A
10:50 PM37 °FLight rain. Overcast.17 mph93%29.45 "HgN/A
10:20 PM37 °FLight rain. Overcast.20 mph93%29.45 "Hg6 mi
9:50 PM37 °FOvercast.16 mph93%29.45 "HgN/A
9:20 PM37 °FMostly cloudy.17 mph93%29.45 "HgN/A
8:50 PM39 °FPartly cloudy.17 mph87%29.45 "HgN/A
8:20 PM37 °FPartly cloudy.16 mph93%29.45 "HgN/A
7:50 PM37 °FPartly cloudy.12 mph87%29.45 "HgN/A
7:20 PM37 °FPartly cloudy.15 mph93%29.42 "HgN/A
6:50 PM36 °FMostly cloudy.12 mph93%29.42 "HgN/A
6:20 PM36 °FSprinkles. Overcast.15 mph93%29.42 "HgN/A
5:50 PM37 °FLight rain. Mostly cloudy.14 mph87%29.42 "HgN/A
5:20 PM37 °FLow clouds.15 mph87%29.42 "HgN/A
4:50 PM37 °FLight rain. Low clouds.17 mph93%29.42 "HgN/A
4:20 PM39 °FLight rain. Overcast.16 mph87%29.42 "HgN/A
3:59 PM39 °FLight rain. Mostly cloudy.12 mph87%29.39 "HgN/A
3:20 PM37 °FBroken clouds.9 mph93%29.39 "HgN/A
Weather by CustomWeather, © 2015

See weather overviewHow to use our weather pages